星链-32357 (STARLINK-32357)

导读 | 星芒AI

STARLINK-32357 是 SpaceX Starlink 卫星互联网项目中的一个轨道卫星,属于第二代 Starlink 任务的一部分。该卫星于2023年发射,旨在为全球用户提供高速、低延迟的宽带互联网服务。它运行在近地轨道,配备先进通信设备,支持全球范围的网络连接,尤其服务于偏远地区。Starlink 项目致力于构建一个由数千颗卫星组成的星座,以实现全球覆盖和稳定的互联网接入。

基本信息
目录编号:
61009
目录名称:
STARLINK-32357
国际标识:
2024-158V
轨道中心:
EARTH
卫星名称:
星链-32357
卫星全名:
星链-32357 (STARLINK-32357)
卫星状态:
已陨落 最后检测时间 2025-11-19
发射日期:
2024-09-05 UTC
国别 :
美国 (US)
星等 :
--
轨道信息
数据来源 国际轨道数据
星历时间: 2025-11-19T08:22:48+0800
轨道信息已过期31天
半长轴: 6599.644km
偏心率: 0.0009413
轨道倾角: 53.123°
近地点辐角 244.689°
升交点赤经 157.784°
平近点角 115.317°
近地点: 215.296km
远地点: 227.722km
周期: 88.928分钟
每日圈数: 16.192802
详细信息
固有亮度:
5
最大亮度:
2.5
卫星平台:
Starlink V1.0
覆盖范围:
全球
运营商:
太空探索技术公司
运营商所在国:
美国
制造商(研发单位):
太空探索技术公司
制造商所在国:
美国
使用方式:
暂无
卫星简介
Starlink 计划是 SpaceX 推出的全球卫星互联网项目,通过发射低轨道卫星,为全球尤其是偏远地区提供高速、低延迟的互联网服务。自 2019 年起,Starlink 已部署数千颗卫星,旨在缩小全球数字鸿沟,推动互联网普及。该项目还为军事、航空等行业提供通信支持,带来广泛经济效益。